Tracking 30918 objects as of 2-Jul-2025
HD Live streaming from Space Station
objects crossing your sky now

THORAD DELTA 1 DEB

Track THORAD DELTA 1 DEB now!
10-day predictions


NORAD ID: 8163
Int'l Code: 1974-089AD
Perigee: 1,258.8 km
Apogee: 1,777.1 km
Inclination: 102.5 °
Period: 116.2 minutes
Semi major axis: 7888 km
RCS: 0.0599 m2 (small)
Launch date: November 15, 1974
Source: United States (US)
Launch site: AIR FORCE WESTERN TEST RANGE (AFWTR)

Note: This is SATELLITE DEBRIS
Your satellite tracking list
DELTA 1 DEB
Track 1 satellite(s)




NASA's NSSDC Master Catalog

Two Line Element Set (TLE):
1  8163U 74089AD  25175.93492584  .00000553  00000-0  37811-2 0  9995
2  8163 102.5037 183.9299 0328517 349.9595   9.5014 12.39005386266919
Source of the keplerian elements: AFSPC